www.pogodaiklimat.ru

Погода и климат >> Архив погоды >> Колумбия >> Neiva


ПОГОДА в Neiva

  • Прогноз погоды в Neiva
  • Монитор погоды в Neiva
  • Климат города

АРХИВ ПОГОДЫ в Neiva

Время (UTC), дата Ветер
(напр.,м/с)
 
Видим.   Явления Облачность Т
(С)
Тd
(С)
f
(%)
Тe
(С)
Тes
(С)
Комфортность P
(гПа)
Po
(гПа)
Тmin
(С)
Tmax
(С)
R
(мм)
R24
(мм)
S
(см)
21 10.12 Ю 3 18 км 8/1 1350 м
[Cu hum Ac trans Cs]
+34.1 +18.7 40 +39 +41 очень
душно
1003.9 955.6
00 11.12 ЮЗ 2 18 км 5/1 1350 м
[Cu hum Ac trans]
+29.3 +21.4 62 +37 +37 очень
душно
1006.1 956.9 +34.5
12 11.12 З 1 18 км 9/1 1000 м
[Cu hum Ac As]
+24.7 +20.5 77 +31 +31 очень
душно
1011.6 961.4 +23.6
15 11.12 Ю 3 18 км 6/1 1350 м
[Cu hum Ac trans Cs]
+29.0 +19.6 57 +35 +42 очень
душно
1011.6 962.1
18 11.12 Ю 4 17 км 6/1 1350 м
[Cu hum Ac As]
+32.8 +18.5 43 +38 +44 очень
душно
1008.4 959.7
21 11.12 З 2 17 км 8/1 1350 м
[Cu hum Ac As Cs]
+32.4 +17.2 40 +36 +38 очень
душно
1006.2 957.4
00 12.12 ЮВ 1 18 км 9/1 1350 м
[Sc diur, vesp Ac As]
+29.7 +19.5 54 +35 +35 очень
душно
1007.1 957.9 +33.3
03 12.12 СВ 1 18 км 9/1 1200 м
[Cu hum Ac As]
+27.1 +20.2 66 +33 +33 очень
душно
1010.5 960.7
12 12.12 штиль 0 17 км осадки на расстоянии 9/1 1500 м
[Cu hum Ac As]
+24.6 +19.1 71 +30 +30 очень
душно
1011.5 961.2 +24.3
18 12.12 Ю 5 18 км 9/3 1350 м
[Cu hum Ac trans]
+32.0 +18.4 44 +37 +40 очень
душно
1008.3 959.4
21 12.12 Ю 3 18 км 8/1 1200 м
[Cu hum Ac trans]
+33.6 +17.7 39 +37 +39 очень
душно
1005.0 956.5
00 13.12 Ю 4 18 км 9/1 1200 м
[Sc diur, vesp Ac As]
+29.9 +19.8 55 +36 +36 очень
душно
1006.6 957.5 +33.6
03 13.12 Ю 3 18 км 9/1 1200 м
[Cu hum Ac As]
+28.0 +19.1 58 +33 +33 очень
душно
1009.0 959.5
12 13.12 штиль 0 18 км осадки на расстоянии 8/1 1500 м
[Cu hum Ac As Cs]
+24.9 +20.4 76 +31 +32 очень
душно
1010.8 960.6 +24.2
15 13.12 ЮЗ 3 17 км осадки на расстоянии 10/1 1500 м
[Cu hum Ac As]
+27.2 +20.2 66 +34 +37 очень
душно
1012.1 962.2
18 13.12 Ю 4 18 км 9/1 1500 м
[Cu hum Ac As]
+29.8 +19.5 54 +36 +39 очень
душно
1009.5 960.2
21 13.12 Ю 5 18 км 8/1 1350 м
[Cu hum Ac trans Cs]
+30.1 +19.1 52 +36 +37 очень
душно
1006.6 957.4
00 14.12 Ю 3 18 км 5/1 1050 м
[Cu hum Ac trans Cs]
+27.5 +19.5 62 +33 +33 очень
душно
1007.4 957.9 +30.5
12 14.12 Ю 2 18 км осадки на расстоянии 9/0
[Ac As]
+23.0 +21.2 90 +31 +31 очень
душно
1011.9 961.4 +23.0 0.3
15 14.12 ЮЗ 2 18 км 9/1 1200 м
[Cu med, cong Ac As]
+26.0 +20.3 71 +32 +37 очень
душно
1012.7 962.6
18 14.12 Ю 3 18 км 9/1 1050 м
[Cu hum Ac As]
+28.8 +19.2 56 +34 +39 очень
душно
1009.9 960.4
21 14.12 Ю 4 18 км 8/1 1200 м
[Cu hum Ac trans Cs]
+29.1 +19.5 56 +35 +36 очень
душно
1007.2 957.9
00 15.12 ЮЗ 1 18 км 3/0
[Ac trans Cs]
+27.5 +18.8 59 +33 +33 очень
душно
1008.4 958.8 +30.1
03 15.12 В 1 18 км 9/0
[Ac trans Cs]
+25.1 +20.5 76 +31 +31 очень
душно
1011.2 961.0
12 15.12 Ю 2 18 км 6/0
[Ac trans]
+21.2 +19.1 88 +26 +26 душно 1012.9 962.0 +21.4
15 15.12 Ю 2 18 км 8/1 750 м
[Cu hum Ac trans]
+27.1 +18.9 61 +32 +39 очень
душно
1012.6 962.7
18 15.12 ЮЗ 3 18 км 4/4 1200 м
[Cu med, cong Cc]
+32.3 +17.7 42 +36 +45 очень
душно
1008.3 959.5
21 15.12 Ю 2 18 км 3/3 1350 м
[Cu med, cong]
+34.6 +16.7 35 +38 +41 очень
душно
1004.3 956.0
00 16.12 СВ 1 18 км 1/1 1200 м
[Sc diur, vesp]
+30.3 +16.2 43 +34 +34 очень
душно
1005.9 956.9 +34.6
03 16.12 ЮВ 1 18 км 1/0
[Ac trans]
+26.8 +16.4 53 +30 +30 душно 1009.9 960.1
12 16.12 штиль 0 18 км 1/0
[Ac trans]
+23.0 +17.7 72 +28 +30 душно 1011.5 962.2 +20.8
15 16.12 ЮВ 2 18 км 1/1 1000 м
[Cu med, cong]
+29.7 +17.9 49 +34 +46 очень
душно
1011.9 962.5
18 16.12 З 2 18 км 1/1 1200 м
[Cu hum Ac trans]
+33.4 +16.8 37 +36 +51 опасность
солнечного
удара
1007.1 958.5
21 16.12 ЮЗ 2 18 км 1/1 1350 м
[Cu hum Ac trans]
+35.3 +14.0 28 +36 +40 очень
жарко
1003.4 955.3
00 17.12 ЮВ 3 18 км 1/0
[Ac trans]
+31.5 +14.4 35 +33 +33 жарко 1005.4 956.6 +35.2
12 17.12 Ю 1 18 км 1/0
[Ac trans]
+21.8 +17.9 79 +26 +28 душно 1011.8 961.1 +21.2
15 17.12 ЮЗ 3 18 км 1/1 1350 м
[Cu hum Ac trans]
+28.7 +18.0 52 +33 +43 очень
душно
1011.6 962.1

 

Местоположение метеостанции Neiva (Колумбия): широта 2.97 долгота -75.30 высота над уровнем моря 443 м.

В архиве по умолчанию представлена погода в Neiva за последнюю неделю. Архивные данные за месяц целиком и за предыдущие месяцы, начиная с января 2011 года, Вы можете получить, выбрав интересующий диапазон дат из раскрывающегося списка и нажав кнопку "Ввод!".


*Определитесь, кто Вы:
робот инопланетянин человек

Внимание! Время в таблицах - всемирное. Для получения местного времени необходимо прибавить поправку, которая в Neiva равна -5 ч.

Смотрите также архив погоды в соседних городах и на ближайших метеорологических станциях:

Погода в Cali (Колумбия) (136 км)
Погода в Ibague (Колумбия) (163 км)
Погода в Armenia (Колумбия) (176 км)
Погода в Pereira (Колумбия) (211 км)
Погода в Villavicencio (Колумбия) (230 км)
Погода в Bogota (Колумбия) (232 км)
Погода в Pasto (Колумбия) (278 км)
Погода в Quibdo (Колумбия) (339 км)
Погода в Rionegro (Колумбия) (352 км)
Погода в Ipiales (Колумбия) (353 км)

Пояснения к столбцам:

Ветер - указаны скорость ветра в м/с - средняя за 10 мин, порывы в срок и между сроками (в фигурных скобках) и направление, откуда дует ветер: С - северный, СВ - северо-восточный, В - восточный, ЮВ - юго-восточный, Ю - южный, ЮЗ - юго-западный, З - западный, СЗ - северо-западный.
Видимость - горизонтальная дальность видимости в метрах или километрах. При видимости от 1 до 10 км при отсутствии осадков обычно наблюдается дымка, при ухудшении видимости до 1 км и менее - туман. В сухую погоду видимость может ухудшаться дымом, пылью или мглою.
Явления - указаны атмосферные явления, наблюдавшиеся в срок или в последний час перед сроком; фигурными скобками обозначены явления, наблюдавшиеся между сроками (за 1-3 часа до срока); квадратными скобками обозначены град или гололедные отложения с указанием их диаметра в мм.
Облачность - указаны через наклонную черту общая и нижняя облачность в баллах и высота нижней границы облаков в метрах; квадратными скобками обозначены формы облаков: Ci - перистые, Cs - перисто-слоистые, Cc - перисто-кучевые, Ac - высококучевые, As - высокослоистые, Sc - слоисто-кучевые, Ns - слоисто-дождевые, Cu - кучевые, Cb - кучево-дождевые. Подробнее классификацию облаков см. в Атласе облаков (PDF).
T - Температура воздуха - температура, измеренная на высоте 2 м над землей.
Td - Температура точки росы - температура, при понижении до которой содержащийся в воздухе водяной пар достигнет насыщения.
f - Относительная влажность воздуха - влажноcть воздуха, измеренная на высоте 2 м над землей.
Te - Эффективная температура - температура, которую ощущает одетый по сезону человек в тени. Характеристика душности погоды. При расчете учитывается влияние влажности воздуха и скорости ветра на теплоощущения человека.
Tes - Эффективная температура на солнце - температура, которую ощущает человек, с поправкой на солнечный нагрев. Характеристика знойности погоды. Зависит от высоты солнца над горизонтом, облачности и скорости ветра. Ночью, в пасмурную погоду, а также при ветре 12 м/с и более поправка равна нулю.
P - Атмосферное давление - приведенное к уровню моря атмосферное давление.
Po - Атмосферное давление - измеренное на уровне метеостанции атмосферное давление.
Tmin - Минимальная температура - минимум температуры воздуха на высоте 2 м над землей.
Tmax - Максимальная температура - максимум температуры воздуха на высоте 2 м над землей.
R - Количество осадков - Количество выпавших осадков за период времени, мм. При наведении курсора мыши на число - период времени, за который выпало указанное количество осадков.
R24 - Количество осадков - Количество выпавших осадков за 24 часа, мм.
S - Снежный покров - Высота снежного покрова, см. При наведении курсора мыши на число - состояние снежного покрова и степень покрытия местности в баллах.